Time,TemperatureF,DewpointF,PressureIn,WindDirection,WindDirectionDegrees,WindSpeedMPH,WindSpeedGustMPH,Humidity,HourlyPrecipIn,Conditions,Clouds,dailyrainin,SoftwareType,DateUTC
2013-08-19 00:00:00,77.3,49.0,29.89,ESE,116,1.0,1.0,37,0.00,,,0.00,Wunderground v.1.15,2013-08-19 06:00:00,
2013-08-19 00:05:00,77.2,48.2,29.89,SE,132,1.0,1.0,36,0.00,,,0.00,Wunderground v.1.15,2013-08-19 06:05:00,
2013-08-19 00:15:00,76.6,49.1,29.89,South,186,0.0,0.0,38,0.00,,,0.00,Wunderground v.1.15,2013-08-19 06:15:00,
2013-08-19 00:25:00,76.3,48.1,29.89,SSE,159,0.0,0.0,37,0.00,,,0.00,Wunderground v.1.15,2013-08-19 06:25:00,
2013-08-19 00:35:00,76.1,47.9,29.89,SSE,152,0.0,2.0,37,0.00,,,0.00,Wunderground v.1.15,2013-08-19 06:35:00,
2013-08-19 00:45:00,76.2,48.0,29.90,SE,146,1.0,1.0,37,0.00,,,0.00,Wunderground v.1.15,2013-08-19 06:45:00,
2013-08-19 00:55:00,76.1,47.9,29.90,ESE,115,1.0,1.0,37,0.00,,,0.00,Wunderground v.1.15,2013-08-19 06:55:00,
2013-08-19 01:00:00,76.1,47.9,29.90,SSE,148,1.0,1.0,37,0.00,,,0.00,Wunderground v.1.15,2013-08-19 07:00:00,
2013-08-19 01:10:00,76.5,47.6,29.90,SE,139,1.0,1.0,36,0.00,,,0.00,Wunderground v.1.15,2013-08-19 07:10:00,
2013-08-19 01:20:00,75.6,48.9,29.90,WNW,295,0.0,0.0,39,0.00,,,0.00,Wunderground v.1.15,2013-08-19 07:20:00,
2013-08-19 01:30:00,74.9,49.6,29.90,NNW,337,1.0,1.0,41,0.00,,,0.00,Wunderground v.1.15,2013-08-19 07:30:00,
2013-08-19 01:40:00,74.3,49.1,29.90,NW,321,0.0,1.0,41,0.00,,,0.00,Wunderground v.1.15,2013-08-19 07:40:00,
2013-08-19 01:50:00,73.9,49.4,29.90,NNW,328,0.0,0.0,42,0.00,,,0.00,Wunderground v.1.15,2013-08-19 07:50:00,
2013-08-19 02:00:00,73.5,49.0,29.90,NNW,339,0.0,0.0,42,0.00,,,0.00,Wunderground v.1.15,2013-08-19 08:00:00,
2013-08-19 02:10:00,73.1,49.3,29.90,NNW,340,0.0,0.0,43,0.00,,,0.00,Wunderground v.1.15,2013-08-19 08:10:00,
2013-08-19 02:20:00,72.3,49.2,29.90,NNW,342,0.0,0.0,44,0.00,,,0.00,Wunderground v.1.15,2013-08-19 08:20:00,
2013-08-19 02:30:00,71.7,49.8,29.90,North,358,0.0,0.0,46,0.00,,,0.00,Wunderground v.1.15,2013-08-19 08:30:00,
2013-08-19 02:40:00,71.7,49.8,29.90,ESE,118,0.0,2.0,46,0.00,,,0.00,Wunderground v.1.15,2013-08-19 08:40:00,
2013-08-19 02:45:00,72.3,49.8,29.90,ESE,119,1.0,2.0,45,0.00,,,0.00,Wunderground v.1.15,2013-08-19 08:45:00,
2013-08-19 02:55:00,72.9,49.1,29.90,SE,124,1.0,1.0,43,0.00,,,0.00,Wunderground v.1.15,2013-08-19 08:55:00,
2013-08-19 03:00:00,72.7,48.9,29.90,East,96,1.0,1.0,43,0.00,,,0.00,Wunderground v.1.15,2013-08-19 09:00:00,
2013-08-19 03:10:00,72.6,49.4,29.89,East,100,0.0,0.0,44,0.00,,,0.00,Wunderground v.1.15,2013-08-19 09:10:00,
2013-08-19 03:20:00,72.3,49.8,29.89,NW,325,0.0,0.0,45,0.00,,,0.00,Wunderground v.1.15,2013-08-19 09:20:00,
2013-08-19 03:30:00,72.3,49.2,29.89,ENE,58,0.0,0.0,44,0.00,,,0.00,Wunderground v.1.15,2013-08-19 09:30:00,
2013-08-19 03:40:00,72.0,48.9,29.88,NW,323,0.0,3.0,44,0.00,,,0.00,Wunderground v.1.15,2013-08-19 09:40:00,
2013-08-19 03:50:00,71.9,49.4,29.88,NW,319,1.0,2.0,45,0.00,,,0.00,Wunderground v.1.15,2013-08-19 09:50:00,
2013-08-19 04:00:00,72.2,49.1,29.88,North,360,3.0,3.0,44,0.00,,,0.00,Wunderground v.1.15,2013-08-19 10:00:00,
2013-08-19 04:10:00,72.2,49.1,29.88,North,349,1.0,1.0,44,0.00,,,0.00,Wunderground v.1.15,2013-08-19 10:10:00,
2013-08-19 04:20:00,72.0,48.9,29.88,NNE,30,0.0,0.0,44,0.00,,,0.00,Wunderground v.1.15,2013-08-19 10:20:00,
2013-08-19 04:25:00,71.6,49.1,29.88,NNE,23,0.0,0.0,45,0.00,,,0.00,Wunderground v.1.15,2013-08-19 10:25:00,
2013-08-19 04:35:00,71.3,49.4,29.87,North,1,0.0,0.0,46,0.00,,,0.00,Wunderground v.1.15,2013-08-19 10:35:00,
2013-08-19 04:45:00,70.5,49.3,29.87,SE,131,0.0,0.0,47,0.00,,,0.00,Wunderground v.1.15,2013-08-19 10:45:00,
2013-08-19 04:55:00,70.1,50.0,29.87,SW,225,0.0,0.0,49,0.00,,,0.00,Wunderground v.1.15,2013-08-19 10:55:00,
2013-08-19 05:00:00,69.7,50.2,29.87,SW,224,0.0,0.0,50,0.00,,,0.00,Wunderground v.1.15,2013-08-19 11:00:00,
2013-08-19 05:10:00,69.6,49.6,29.87,SE,139,1.0,1.0,49,0.00,,,0.00,Wunderground v.1.15,2013-08-19 11:10:00,
2013-08-19 05:20:00,70.2,49.0,29.87,SE,137,1.0,1.0,47,0.00,,,0.00,Wunderground v.1.15,2013-08-19 11:20:00,
2013-08-19 05:30:00,69.7,49.7,29.88,WNW,302,1.0,1.0,49,0.00,,,0.00,Wunderground v.1.15,2013-08-19 11:30:00,
2013-08-19 05:40:00,69.7,50.2,29.88,NW,307,0.0,0.0,50,0.00,,,0.00,Wunderground v.1.15,2013-08-19 11:40:00,
2013-08-19 05:50:00,68.9,50.5,29.88,NW,307,0.0,0.0,52,0.00,,,0.00,Wunderground v.1.15,2013-08-19 11:50:00,
2013-08-19 06:00:00,67.9,50.6,29.88,NW,307,0.0,0.0,54,0.00,,,0.00,Wunderground v.1.15,2013-08-19 12:00:00,
2013-08-19 06:10:00,67.3,51.1,29.88,NW,307,0.0,0.0,56,0.00,,,0.00,Wunderground v.1.15,2013-08-19 12:10:00,
2013-08-19 06:15:00,67.0,50.8,29.88,NW,304,0.0,0.0,56,0.00,,,0.00,Wunderground v.1.15,2013-08-19 12:15:00,
2013-08-19 06:25:00,66.9,50.7,29.89,WNW,291,0.0,0.0,56,0.00,,,0.00,Wunderground v.1.15,2013-08-19 12:25:00,
2013-08-19 06:35:00,67.5,50.3,29.89,ESE,118,0.0,1.0,54,0.00,,,0.00,Wunderground v.1.15,2013-08-19 12:35:00,
2013-08-19 06:45:00,67.6,50.4,29.89,ESE,109,0.0,0.0,54,0.00,,,0.00,Wunderground v.1.15,2013-08-19 12:45:00,
2013-08-19 06:55:00,67.9,50.6,29.90,SE,129,0.0,0.0,54,0.00,,,0.00,Wunderground v.1.15,2013-08-19 12:55:00,
2013-08-19 07:00:00,67.7,50.5,29.90,SE,132,0.0,0.0,54,0.00,,,0.00,Wunderground v.1.15,2013-08-19 13:00:00,
2013-08-19 07:10:00,67.2,50.5,29.90,SSE,159,0.0,0.0,55,0.00,,,0.00,Wunderground v.1.15,2013-08-19 13:10:00,
2013-08-19 07:20:00,67.3,51.1,29.91,SSE,159,0.0,0.0,56,0.00,,,0.00,Wunderground v.1.15,2013-08-19 13:20:00,
2013-08-19 07:30:00,68.3,51.5,29.91,North,356,1.0,1.0,55,0.00,,,0.00,Wunderground v.1.15,2013-08-19 13:30:00,
2013-08-19 07:40:00,68.8,51.5,29.91,North,8,2.0,2.0,54,0.00,,,0.00,Wunderground v.1.15,2013-08-19 13:40:00,
2013-08-19 07:50:00,69.4,51.5,29.92,NE,34,2.0,2.0,53,0.00,,,0.00,Wunderground v.1.15,2013-08-19 13:50:00,
2013-08-19 08:00:00,70.1,51.7,29.92,ESE,112,0.0,0.0,52,0.00,,,0.00,Wunderground v.1.15,2013-08-19 14:00:00,
2013-08-19 08:10:00,71.1,51.5,29.91,SSE,149,0.0,0.0,50,0.00,,,0.00,Wunderground v.1.15,2013-08-19 14:10:00,
2013-08-19 08:15:00,71.7,51.0,29.91,SE,127,0.0,0.0,48,0.00,,,0.00,Wunderground v.1.15,2013-08-19 14:15:00,
2013-08-19 08:25:00,72.2,50.8,29.92,SW,222,0.0,0.0,47,0.00,,,0.00,Wunderground v.1.15,2013-08-19 14:25:00,
2013-08-19 08:35:00,72.8,52.5,29.92,West,262,0.0,1.0,49,0.00,,,0.00,Wunderground v.1.15,2013-08-19 14:35:00,
2013-08-19 08:45:00,73.1,52.2,29.91,NNW,333,0.0,0.0,48,0.00,,,0.00,Wunderground v.1.15,2013-08-19 14:45:00,
2013-08-19 08:55:00,74.1,52.6,29.92,West,265,1.0,1.0,47,0.00,,,0.00,Wunderground v.1.15,2013-08-19 14:55:00,
2013-08-19 09:00:00,74.2,52.1,29.92,WSW,255,1.0,1.0,46,0.00,,,0.00,Wunderground v.1.15,2013-08-19 15:00:00,
2013-08-19 09:10:00,74.4,52.3,29.91,WSW,253,0.0,0.0,46,0.00,,,0.00,Wunderground v.1.15,2013-08-19 15:10:00,
2013-08-19 09:20:00,74.6,51.9,29.92,WNW,301,1.0,1.0,45,0.00,,,0.00,Wunderground v.1.15,2013-08-19 15:20:00,
2013-08-19 09:25:00,74.8,52.0,29.92,West,277,1.0,1.0,45,0.00,,,0.00,Wunderground v.1.15,2013-08-19 15:25:00,
2013-08-19 09:35:00,75.3,53.1,29.92,WSW,246,1.0,1.0,46,0.00,,,0.00,Wunderground v.1.15,2013-08-19 15:35:00,
2013-08-19 09:45:00,76.3,52.8,29.92,WSW,257,1.0,1.0,44,0.00,,,0.00,Wunderground v.1.15,2013-08-19 15:45:00,
2013-08-19 09:55:00,77.6,53.3,29.92,West,281,1.0,1.0,43,0.00,,,0.00,Wunderground v.1.15,2013-08-19 15:55:00,
2013-08-19 10:00:00,78.2,53.9,29.92,NNW,330,1.0,3.0,43,0.00,,,0.00,Wunderground v.1.15,2013-08-19 16:00:00,
2013-08-19 10:10:00,78.4,52.7,29.92,ENE,60,2.0,2.0,41,0.00,,,0.00,Wunderground v.1.15,2013-08-19 16:10:00,
2013-08-19 10:20:00,79.1,52.0,29.91,NNW,328,1.0,1.0,39,0.00,,,0.00,Wunderground v.1.15,2013-08-19 16:20:00,
2013-08-19 10:25:00,79.9,52.0,29.91,NW,326,0.0,1.0,38,0.00,,,0.00,Wunderground v.1.15,2013-08-19 16:25:00,
2013-08-19 10:35:00,82.7,53.8,29.91,SE,129,0.0,2.0,37,0.00,,,0.00,Wunderground v.1.15,2013-08-19 16:35:00,
2013-08-19 10:45:00,83.0,52.5,29.91,NE,47,1.0,3.0,35,0.00,,,0.00,Wunderground v.1.15,2013-08-19 16:45:00,
2013-08-19 10:55:00,82.3,50.3,29.91,NNW,340,2.0,4.0,33,0.00,,,0.00,Wunderground v.1.15,2013-08-19 16:55:00,
2013-08-19 11:00:00,82.7,50.7,29.91,SW,214,1.0,1.0,33,0.00,,,0.00,Wunderground v.1.15,2013-08-19 17:00:00,
2013-08-19 11:10:00,84.6,50.6,29.91,SSW,194,1.0,1.0,31,0.00,,,0.00,Wunderground v.1.15,2013-08-19 17:10:00,
2013-08-19 11:15:00,85.5,49.6,29.90,SSW,212,1.0,2.0,29,0.00,,,0.00,Wunderground v.1.15,2013-08-19 17:15:00,
2013-08-19 11:25:00,85.1,50.2,29.90,SW,217,2.0,2.0,30,0.00,,,0.00,Wunderground v.1.15,2013-08-19 17:25:00,
2013-08-19 11:35:00,84.7,49.8,29.90,SW,228,2.0,2.0,30,0.00,,,0.00,Wunderground v.1.15,2013-08-19 17:35:00,
2013-08-19 11:40:00,85.4,49.5,29.90,SSW,207,1.0,1.0,29,0.00,,,0.00,Wunderground v.1.15,2013-08-19 17:40:00,
2013-08-19 11:50:00,86.1,49.2,29.89,NW,312,2.0,4.0,28,0.00,,,0.00,Wunderground v.1.15,2013-08-19 17:50:00,
2013-08-19 12:00:00,85.5,48.7,29.89,SSW,207,3.0,3.0,28,0.00,,,0.00,Wunderground v.1.15,2013-08-19 18:00:00,
2013-08-19 12:10:00,85.7,47.9,29.88,WNW,300,2.0,3.0,27,0.00,,,0.00,Wunderground v.1.15,2013-08-19 18:10:00,
2013-08-19 12:20:00,86.0,48.1,29.88,NNW,335,2.0,2.0,27,0.00,,,0.00,Wunderground v.1.15,2013-08-19 18:20:00,
2013-08-19 12:30:00,86.4,49.4,29.87,NNW,337,3.0,5.0,28,0.00,,,0.00,Wunderground v.1.15,2013-08-19 18:30:00,
2013-08-19 12:40:00,87.0,49.0,29.86,SSW,208,2.0,2.0,27,0.00,,,0.00,Wunderground v.1.15,2013-08-19 18:40:00,
2013-08-19 12:45:00,88.2,49.0,29.86,West,266,2.0,4.0,26,0.00,,,0.00,Wunderground v.1.15,2013-08-19 18:45:00,
2013-08-19 12:55:00,87.7,47.5,29.86,North,355,3.0,3.0,25,0.00,,,0.00,Wunderground v.1.15,2013-08-19 18:55:00,
2013-08-19 13:00:00,87.4,48.3,29.85,North,355,2.0,2.0,26,0.00,,,0.00,Wunderground v.1.15,2013-08-19 19:00:00,
2013-08-19 13:10:00,88.8,49.5,29.85,NW,319,2.0,2.0,26,0.00,,,0.00,Wunderground v.1.15,2013-08-19 19:10:00,
2013-08-19 13:20:00,88.9,47.4,29.84,East,84,3.0,3.0,24,0.00,,,0.00,Wunderground v.1.15,2013-08-19 19:20:00,
2013-08-19 13:25:00,89.2,48.8,29.84,NNE,12,3.0,4.0,25,0.00,,,0.00,Wunderground v.1.15,2013-08-19 19:25:00,
2013-08-19 13:35:00,90.0,49.5,29.84,ESE,112,2.0,2.0,25,0.00,,,0.00,Wunderground v.1.15,2013-08-19 19:35:00,
2013-08-19 13:45:00,90.3,48.6,29.83,East,101,2.0,2.0,24,0.00,,,0.00,Wunderground v.1.15,2013-08-19 19:45:00,
2013-08-19 13:55:00,89.9,48.3,29.83,NNW,342,4.0,6.0,24,0.00,,,0.00,Wunderground v.1.15,2013-08-19 19:55:00,
2013-08-19 14:00:00,89.7,47.0,29.82,North,359,4.0,4.0,23,0.00,,,0.00,Wunderground v.1.15,2013-08-19 20:00:00,
2013-08-19 14:10:00,91.1,49.3,29.82,West,274,2.0,5.0,24,0.00,,,0.00,Wunderground v.1.15,2013-08-19 20:10:00,
2013-08-19 14:15:00,91.0,48.1,29.81,West,264,3.0,5.0,23,0.00,,,0.00,Wunderground v.1.15,2013-08-19 20:15:00,
2013-08-19 14:25:00,90.8,47.9,29.81,West,280,3.0,4.0,23,0.00,,,0.00,Wunderground v.1.15,2013-08-19 20:25:00,
2013-08-19 14:35:00,91.9,46.4,29.80,NW,315,3.0,3.0,21,0.00,,,0.00,Wunderground v.1.15,2013-08-19 20:35:00,
2013-08-19 14:45:00,90.5,46.5,29.80,NNE,27,4.0,5.0,22,0.00,,,0.00,Wunderground v.1.15,2013-08-19 20:45:00,
2013-08-19 14:55:00,91.9,47.6,29.80,SW,215,2.0,4.0,22,0.00,,,0.00,Wunderground v.1.15,2013-08-19 20:55:00,
2013-08-19 15:00:00,92.2,46.6,29.79,North,355,2.0,5.0,21,0.00,,,0.00,Wunderground v.1.15,2013-08-19 21:00:00,
2013-08-19 15:10:00,92.8,47.1,29.79,NW,323,3.0,3.0,21,0.00,,,0.00,Wunderground v.1.15,2013-08-19 21:10:00,
2013-08-19 15:20:00,93.0,47.3,29.78,SSE,158,2.0,3.0,21,0.00,,,0.00,Wunderground v.1.15,2013-08-19 21:20:00,
2013-08-19 15:30:00,94.3,44.3,29.77,SSW,210,2.0,2.0,18,0.00,,,0.00,Wunderground v.1.15,2013-08-19 21:30:00,
2013-08-19 15:40:00,94.6,44.5,29.77,SE,134,2.0,3.0,18,0.00,,,0.00,Wunderground v.1.15,2013-08-19 21:40:00,
2013-08-19 15:50:00,94.8,46.1,29.76,WSW,249,1.0,2.0,19,0.00,,,0.00,Wunderground v.1.15,2013-08-19 21:50:00,
2013-08-19 16:00:00,94.1,45.5,29.76,West,273,3.0,3.0,19,0.00,,,0.00,Wunderground v.1.15,2013-08-19 22:00:00,
2013-08-19 16:10:00,94.0,44.0,29.75,West,264,3.0,3.0,18,0.00,,,0.00,Wunderground v.1.15,2013-08-19 22:10:00,
2013-08-19 16:20:00,93.3,43.5,29.75,WSW,253,3.0,6.0,18,0.00,,,0.00,Wunderground v.1.15,2013-08-19 22:20:00,
2013-08-19 16:30:00,93.4,45.0,29.75,West,276,3.0,6.0,19,0.00,,,0.00,Wunderground v.1.15,2013-08-19 22:30:00,
2013-08-19 16:40:00,92.7,47.0,29.76,WNW,299,4.0,6.0,21,0.00,,,0.00,Wunderground v.1.15,2013-08-19 22:40:00,
2013-08-19 16:50:00,90.9,46.8,29.76,NNW,340,3.0,3.0,22,0.00,,,0.00,Wunderground v.1.15,2013-08-19 22:50:00,
2013-08-19 17:00:00,89.7,48.1,29.76,WSW,250,2.0,2.0,24,0.00,,,0.00,Wunderground v.1.15,2013-08-19 23:00:00,
2013-08-19 17:10:00,89.2,48.8,29.76,SSW,205,2.0,2.0,25,0.00,,,0.00,Wunderground v.1.15,2013-08-19 23:10:00,
2013-08-19 17:20:00,88.7,48.4,29.76,West,267,2.0,4.0,25,0.00,,,0.00,Wunderground v.1.15,2013-08-19 23:20:00,
2013-08-19 17:25:00,88.3,48.0,29.76,SSW,204,2.0,5.0,25,0.00,,,0.00,Wunderground v.1.15,2013-08-19 23:25:00,
2013-08-19 17:35:00,87.5,47.3,29.76,SW,232,3.0,3.0,25,0.00,,,0.00,Wunderground v.1.15,2013-08-19 23:35:00,
2013-08-19 17:45:00,86.5,49.5,29.76,WNW,301,3.0,3.0,28,0.00,,,0.00,Wunderground v.1.15,2013-08-19 23:45:00,
2013-08-19 17:55:00,86.5,48.5,29.76,South,169,2.0,2.0,27,0.00,,,0.00,Wunderground v.1.15,2013-08-19 23:55:00,
2013-08-19 18:00:00,86.8,48.8,29.76,SSW,196,1.0,1.0,27,0.00,,,0.00,Wunderground v.1.15,2013-08-20 00:00:00,
2013-08-19 18:10:00,87.5,49.4,29.76,NW,316,0.0,2.0,27,0.00,,,0.00,Wunderground v.1.15,2013-08-20 00:10:00,
2013-08-19 18:20:00,87.2,48.1,29.76,WNW,295,2.0,2.0,26,0.00,,,0.00,Wunderground v.1.15,2013-08-20 00:20:00,
2013-08-19 18:30:00,87.3,48.2,29.76,WNW,284,2.0,2.0,26,0.00,,,0.00,Wunderground v.1.15,2013-08-20 00:30:00,
2013-08-19 18:40:00,87.2,48.1,29.76,NW,307,1.0,1.0,26,0.00,,,0.00,Wunderground v.1.15,2013-08-20 00:40:00,
2013-08-19 18:50:00,86.8,48.8,29.76,NE,43,3.0,3.0,27,0.00,,,0.00,Wunderground v.1.15,2013-08-20 00:50:00,
2013-08-19 19:00:00,86.4,48.5,29.76,NNW,330,4.0,4.0,27,0.00,,,0.00,Wunderground v.1.15,2013-08-20 01:00:00,
2013-08-19 19:10:00,86.1,47.2,29.77,NNW,342,4.0,5.0,26,0.00,,,0.00,Wunderground v.1.15,2013-08-20 01:10:00,
2013-08-19 19:15:00,86.0,47.1,29.77,NW,326,4.0,5.0,26,0.00,,,0.00,Wunderground v.1.15,2013-08-20 01:15:00,
2013-08-19 19:25:00,85.6,48.8,29.78,NNE,21,5.0,5.0,28,0.00,,,0.00,Wunderground v.1.15,2013-08-20 01:25:00,
2013-08-19 19:35:00,85.1,48.3,29.78,North,1,4.0,5.0,28,0.00,,,0.00,Wunderground v.1.15,2013-08-20 01:35:00,
2013-08-19 19:45:00,84.3,48.6,29.79,ESE,102,5.0,7.0,29,0.00,,,0.00,Wunderground v.1.15,2013-08-20 01:45:00,
2013-08-19 19:55:00,82.7,48.1,29.80,East,85,2.0,7.0,30,0.00,,,0.00,Wunderground v.1.15,2013-08-20 01:55:00,
2013-08-19 20:00:00,82.2,48.6,29.80,ESE,110,2.0,2.0,31,0.00,,,0.00,Wunderground v.1.15,2013-08-20 02:00:00,
2013-08-19 20:10:00,81.9,49.1,29.81,East,101,2.0,2.0,32,0.00,,,0.00,Wunderground v.1.15,2013-08-20 02:10:00,
2013-08-19 20:20:00,80.6,53.4,29.82,East,99,1.0,1.0,39,0.00,,,0.00,Wunderground v.1.15,2013-08-20 02:20:00,
2013-08-19 20:30:00,77.9,54.2,29.82,SE,130,1.0,2.0,44,0.00,,,0.00,Wunderground v.1.15,2013-08-20 02:30:00,
2013-08-19 20:35:00,78.0,53.0,29.82,East,94,2.0,6.0,42,0.00,,,0.00,Wunderground v.1.15,2013-08-20 02:35:00,
2013-08-19 20:45:00,77.6,52.7,29.83,East,96,7.0,7.0,42,0.00,,,0.01,Wunderground v.1.15,2013-08-20 02:45:00,
2013-08-19 20:55:00,77.1,51.6,29.83,South,178,8.0,8.0,41,0.00,,,0.01,Wunderground v.1.15,2013-08-20 02:55:00,
2013-08-19 21:00:00,76.3,52.2,29.84,SE,141,8.0,8.0,43,0.00,,,0.01,Wunderground v.1.15,2013-08-20 03:00:00,
2013-08-19 21:10:00,75.3,52.5,29.84,East,101,8.0,8.0,45,0.00,,,0.01,Wunderground v.1.15,2013-08-20 03:10:00,
2013-08-19 21:20:00,74.8,53.2,29.86,SSE,152,9.0,9.0,47,0.00,,,0.01,Wunderground v.1.15,2013-08-20 03:20:00,
2013-08-19 21:30:00,73.7,53.9,29.88,SE,136,8.0,8.0,50,0.00,,,0.01,Wunderground v.1.15,2013-08-20 03:30:00,
2013-08-19 21:40:00,73.3,54.1,29.88,East,101,6.0,6.0,51,0.00,,,0.01,Wunderground v.1.15,2013-08-20 03:40:00,
2013-08-19 21:50:00,73.6,53.8,29.89,SSE,164,6.0,6.0,50,0.00,,,0.01,Wunderground v.1.15,2013-08-20 03:50:00,
2013-08-19 22:00:00,73.9,52.4,29.89,SE,135,4.0,6.0,47,0.00,,,0.01,Wunderground v.1.15,2013-08-20 04:00:00,
2013-08-19 22:05:00,74.2,53.2,29.89,ESE,117,5.0,6.0,48,0.00,,,0.01,Wunderground v.1.15,2013-08-20 04:05:00,
2013-08-19 22:10:00,74.1,53.2,29.89,SE,134,4.0,4.0,48,0.00,,,0.01,Wunderground v.1.15,2013-08-20 04:10:00,
2013-08-19 22:15:00,74.2,52.7,29.90,SE,145,4.0,4.0,47,0.00,,,0.01,Wunderground v.1.15,2013-08-20 04:15:00,
2013-08-19 22:25:00,74.2,52.7,29.90,SSE,156,4.0,4.0,47,0.00,,,0.01,Wunderground v.1.15,2013-08-20 04:25:00,
2013-08-19 22:35:00,74.3,52.2,29.90,SSE,148,4.0,6.0,46,0.00,,,0.01,Wunderground v.1.15,2013-08-20 04:35:00,
2013-08-19 22:40:00,74.4,52.3,29.90,SE,124,2.0,2.0,46,0.00,,,0.01,Wunderground v.1.15,2013-08-20 04:40:00,
2013-08-19 22:50:00,74.2,52.1,29.90,SSE,152,4.0,4.0,46,0.00,,,0.01,Wunderground v.1.15,2013-08-20 04:50:00,
2013-08-19 23:00:00,74.0,52.5,29.91,SW,217,3.0,3.0,47,0.00,,,0.01,Wunderground v.1.15,2013-08-20 05:00:00,
2013-08-19 23:10:00,73.6,53.3,29.91,SSW,203,2.0,7.0,49,0.00,,,0.01,Wunderground v.1.15,2013-08-20 05:10:00,
2013-08-19 23:20:00,72.6,55.0,29.91,South,179,3.0,3.0,54,0.00,,,0.01,Wunderground v.1.15,2013-08-20 05:20:00,
2013-08-19 23:30:00,71.7,56.1,29.91,SE,145,2.0,2.0,58,0.00,,,0.01,Wunderground v.1.15,2013-08-20 05:30:00,
2013-08-19 23:40:00,71.2,56.1,29.92,SE,146,1.0,1.0,59,0.00,,,0.01,Wunderground v.1.15,2013-08-20 05:40:00,
2013-08-19 23:50:00,70.9,55.4,29.92,South,179,3.0,3.0,58,0.00,,,0.01,Wunderground v.1.15,2013-08-20 05:50:00,